Regional Weather Roundup
Issued by NWS Jackson, KY

Home | Current Version | Previous Version | Graphics & Text | Print | Product List | Glossary On
Versions: 1 2 3 4 5 6 7 8 9 10 11 12 13 14 15 16 17 18 19 20 21 22 23 24 25 26 27 28 29 30 31 32 33 34 35 36 37 38 39 40 41 42 43 44 45 46 47 48 49 50
000
ASUS43 KJKL 270010
RWRJKL

EAST KENTUCKY HOURLY WEATHER ROUNDUP
NATIONAL WEATHER SERVICE JACKSON KY
800 PM EDT TUE MAY 26 2015

NOTE: "FAIR" INDICATES FEW OR NO CLOUDS BELOW 12,000 FEET WITH
NO SIGNIFICANT WEATHER AND/OR OBSTRUCTIONS TO VISIBILITY.

* THESE REPORTS ARE NOT UNDER NWS QUALITY CONTROL AND MAY NOT
  REPORT WEATHER SUCH AS PRECIPITATION AND FOG.

KYZ079-080-083-085-087-088-110-112-115-119-120-270100
...EASTERN KENTUCKY...

CITY           SKY/WX    TMP DP  RH WIND       PRES   REMARKS
JACKSON        MOCLDY    79  63  57 MISG      30.09R
6HR MIN TEMP:  79; 6HR MAX TEMP:  85; 6HR PCP: TRACE;

LONDON         LGT RAIN  79  58  48 S9        30.10R
6HR MIN TEMP:  79; 6HR MAX TEMP:  87; 6HR PCP: TRACE;

SOMERSET*      RAIN      64  64 100 CALM      30.12R
MONTICELLO*    CLOUDY    70  69  96 S6        30.13F FOG
6HR MIN TEMP:  70; 6HR MAX TEMP:  87; 6HR PCP:  0.21;

MIDDLESBORO*   CLOUDY    70  69  97 CALM      30.12R
6HR MIN TEMP:  70; 6HR MAX TEMP:  85; 6HR PCP:  0.09;

HARLAN APT*    CLOUDY    66  66 100 E6        30.13R
HAZARD APT*    MOCLDY    75  63  64 S7G16     30.10
BLACK MTN*       N/A     64  63  94 S5          N/A
PIKEVILLE APT* PTCLDY    79  66  65 S3        30.10R
BIG SANDY*     MOCLDY    79  67  67 CALM      30.08S
MOREHEAD APT*  MOCLDY    79  64  61 S8        30.05R
$$

KYZ035-036-041-042-044-050-067-078-099-270100
...CENTRAL KENTUCKY...

CITY           SKY/WX    TMP DP  RH WIND       PRES   REMARKS
MT STERLING*   RAIN      66  66 100 W13G22    30.11R
FLEMING/MASON* MOCLDY    66  64  94 W8        30.04R
DANVILLE*      LGT RAIN  64  63  94 S7        30.10R
RICHMOND*      CLOUDY    64  63  94 W14G21    30.12R
LEXINGTON      LGT RAIN  68  65  90 S12       30.08R
6HR MIN TEMP:  68; 6HR MAX TEMP:  83; 6HR PCP:  0.42;

FRANKFORT      CLOUDY    69  66  90 S9        30.04R
6HR MIN TEMP:  69; 6HR MAX TEMP:  82; 6HR PCP:  0.10;

$$

KYZ091>093-OHZ055-061-077-WVZ005-015-034-035-042-270100
...SOUTHERN OHIO/WEST VIRGINIA...

CITY           SKY/WX    TMP DP  RH WIND       PRES   REMARKS
COVINGTON      CLOUDY    71  69  93 S6        30.01S
COLUMBUS       CLOUDY    70  64  83 W7        30.01S
DAYTON         MOCLDY    71  68  90 S12       30.00S
WILMINGTON     LGT RAIN  68  65  90 SW9       30.02F FOG
HUNTINGTON     MOCLDY    70  67  90 SE3       30.04S
CHARLESTON     PTCLDY    82  63  52 SE6       30.05F
PINEVILLE*     PTCLDY    72  71  98 MISG      30.19R
BECKLEY        PTCLDY    74  63  68 SE8       30.19S
BLUEFIELD      PTCLDY    75  62  64 S8        30.23R
$$

VAZ002-007-008-TNZ017-027-036-066-071-270100
...SOUTHWEST VIRGINIA/EAST TENNESSEE...

CITY           SKY/WX    TMP DP  RH WIND       PRES   REMARKS
WISE*          CLOUDY    75  55  50 S12       30.19S
JONESVILLE*    CLOUDY    73  68  83 CALM      30.15R
ABINGDON*      MOCLDY    79  61  53 SW9       30.17S
BRISTOL        CLOUDY    80  63  55 SE3       30.14R
OAK RIDGE      LGT RAIN  73  69  87 VRB5      30.14R
CROSSVILLE     CLOUDY    69  65  86 S8        30.15R
NASHVILLE      MOCLDY    78  69  73 S9        30.06R
$$

...KEY TO REMARKS...
VSB - VISIBILITY IN MILES
WCI - WIND CHILL INDEX
HX  - HEAT INDEX

$$



USA.gov is the U.S. government's official web portal to all federal, state and local government web resources and services.